Eugene, OR

6:56 PM PDT on July 20, 2017 (GMT -0700)
Mahlon Sweet

Weather History for KEUG - November, 2011

Change the Weather History Date:

Sunday, November 6, 2011

  Actual Average Record
Temperature  
Mean Temperature 47 °F 47 °F  
Max Temperature 51 °F 55 °F 70 °F (2006)
Min Temperature 42 °F 39 °F 22 °F (1971)
Degree Days  
Heating Degree Days 18 18  
Month to date heating degree days 129 104  
Since 1 July heating degree days 584 674  
Cooling Degree Days 0 0  
Month to date cooling degree days 0 0  
Year to date cooling degree days 231 239  
Moisture  
Dew Point 42 °F    
Average Humidity 82    
Maximum Humidity 96    
Minimum Humidity 68    
Precipitation  
Precipitation 0.05 in 0.22 in 1.20 in (1916)
Month to date precipitation 0.81 1.20  
Year to date precipitation 24.52 31.75  
Snow  
Snow 0.00 in - - ()
Month to date snowfall 0.0  
Since 1 July snowfall 0.0  
Since 1 September snowfall 0.0  
Snow Depth 0.00 in    
Sea Level Pressure  
Sea Level Pressure 29.99 in    
Wind  
Wind Speed 4 mph (ENE)    
Max Wind Speed 9 mph    
Max Gust Speed 13 mph    
Visibility 9 miles    
Events      
T = Trace of Precipitation, MM = Missing Value Source: NWS Daily Summary

Daily Weather History Graph

Daily Weather History Graph

Search for Another Location

Airport or City:

Trip Planner

Search our weather history database for the weather conditions in past years. The results will help you decide how hot, cold, wet, or windy it might be!

Date:

Astronomy

Nov. 06, 2011 Rise Set
Actual Time 6:56 AM PST 4:56 PM PST
Civil Twilight 6:25 AM PST 5:26 PM PST
Nautical Twilight 5:51 AM PST 6:01 PM PST
Astronomical Twilight 5:17 AM PST 6:35 PM PST
Moon 2:48 PM PST (11/6) 3:00 AM PST (11/6)
Length of Visible Light 11h 01m
Length of Day
10h 00m
Waxing Gibbous, 86% of the Moon is Illuminated
Nov 6
Waxing Gibbous
Nov 10
Full
Nov 18
Last Quarter
Nov 24
New
Dec 2
First Quarter

Hourly Weather History & Observations

Time (PST) Temp. Windchill Dew Point Humidity Pressure Visibility Wind Dir Wind Speed Gust Speed Precip Events Conditions
12:23 AM 42.8 °F 40.1 °F 41.0 °F 93% 29.77 in 10.0 mi North 4.6 mph - N/A   Mostly Cloudy
12:54 AM 44.1 °F 39.5 °F 41.0 °F 89% 29.79 in 10.0 mi North 8.1 mph - N/A   Mostly Cloudy
1:54 AM 44.1 °F 39.5 °F 42.1 °F 93% 29.80 in 10.0 mi North 8.1 mph - N/A   Mostly Cloudy
1:54 AM 44.1 °F 41.5 °F 42.1 °F 93% 29.81 in 10.0 mi NNW 4.6 mph - N/A   Overcast
2:54 AM 44.1 °F 40.1 °F 42.1 °F 93% 29.83 in 10.0 mi North 6.9 mph - N/A   Overcast
3:54 AM 44.1 °F 39.0 °F 41.0 °F 89% 29.84 in 9.0 mi NNE 9.2 mph - N/A   Mostly Cloudy
4:54 AM 44.1 °F 41.5 °F 41.0 °F 89% 29.86 in 9.0 mi NNE 4.6 mph - N/A   Overcast
5:54 AM 44.1 °F 40.8 °F 41.0 °F 89% 29.89 in 10.0 mi North 5.8 mph - N/A   Overcast
6:07 AM 44.6 °F 40.7 °F 41.0 °F 87% 29.89 in 10.0 mi NNE 6.9 mph - N/A   Overcast
6:54 AM 44.1 °F 41.5 °F 41.0 °F 89% 29.92 in 10.0 mi NNE 4.6 mph - N/A   Overcast
7:13 AM 44.6 °F 43.1 °F 41.0 °F 87% 29.92 in 10.0 mi NNE 3.5 mph - N/A   Overcast
7:54 AM 44.1 °F 42.5 °F 41.0 °F 89% 29.95 in 10.0 mi North 3.5 mph - N/A   Overcast
8:02 AM 44.6 °F - 41.0 °F 87% 29.95 in 5.0 mi Calm Calm - N/A   Mostly Cloudy
8:54 AM 45.0 °F - 41.0 °F 86% 29.97 in 6.0 mi Calm Calm - N/A   Haze
9:36 AM 46.4 °F - 41.0 °F 81% 29.99 in 6.0 mi Calm Calm - N/A   Haze
9:54 AM 46.0 °F 44.8 °F 41.0 °F 83% 30.00 in 6.0 mi NW 3.5 mph - N/A   Haze
10:54 AM 48.0 °F - 41.0 °F 77% 30.02 in 8.0 mi Calm Calm - N/A   Overcast
11:41 AM 48.2 °F - 42.8 °F 82% 30.02 in 10.0 mi Calm Calm - N/A   Mostly Cloudy
11:54 AM 48.0 °F - 42.1 °F 80% 30.03 in 10.0 mi Calm Calm - N/A   Mostly Cloudy
12:28 PM 48.2 °F - 42.8 °F 82% 30.03 in 10.0 mi Calm Calm - N/A   Mostly Cloudy
12:54 PM 48.9 °F - 42.1 °F 77% 30.04 in 10.0 mi Calm Calm - N/A   Mostly Cloudy
1:54 PM 50.0 °F - 42.1 °F 74% 30.04 in 10.0 mi SSE 4.6 mph - N/A   Mostly Cloudy
2:54 PM 51.1 °F - 41.0 °F 68% 30.06 in 10.0 mi SSE 5.8 mph - N/A   Mostly Cloudy
3:54 PM 50.0 °F - 41.0 °F 71% 30.07 in 10.0 mi SSW 3.5 mph - N/A   Mostly Cloudy
4:54 PM 48.0 °F - 42.1 °F 80% 30.09 in 10.0 mi SSE 3.5 mph - N/A   Mostly Cloudy
5:54 PM 46.9 °F - 44.1 °F 90% 30.12 in 10.0 mi South 4.6 mph - 0.05 in   Overcast
6:54 PM 46.9 °F - 44.1 °F 90% 30.13 in 10.0 mi South 3.5 mph - N/A   Overcast
7:54 PM 46.9 °F - 44.1 °F 90% 30.14 in 10.0 mi South 4.6 mph - N/A   Overcast
8:54 PM 46.0 °F 43.9 °F 44.1 °F 93% 30.16 in 10.0 mi SSE 4.6 mph - N/A   Overcast
9:54 PM 45.0 °F 41.8 °F 43.0 °F 93% 30.19 in 10.0 mi SSE 5.8 mph - 0.00 in   Overcast
10:21 PM 44.6 °F 41.4 °F 42.8 °F 93% 30.19 in 10.0 mi SSE 5.8 mph - N/A   Mostly Cloudy
10:54 PM 43.0 °F 38.8 °F 41.0 °F 93% 30.20 in 10.0 mi SSE 6.9 mph - N/A   Scattered Clouds